{"data":{"norad_id":56164,"intl_designator":"2023-050C","name":"CHECKMATE 4","alt_names":[],"object_type":"PAYLOAD","status":"ACTIVE","operator":null,"country":"US","launch_date":"2023-04-02","launch_site_code":"AFWTR","launch_vehicle":null,"mission":null,"orbit_class":"UNKNOWN","rcs_meters":null,"size_class":null,"mass_kg":null,"dimensions":null,"purposes":[],"wikipedia_slug":null,"has_3d_model":false,"image_url":null,"decayed_at":null,"tle_current":{"epoch":"2026-09-21T16:14:04.609536Z","epoch_age_seconds":85633,"freshness":"FRESH","line1":"1 56164U 23050C   26264.67644224  .00000024  00000+0  11171-4 0  9997","line2":"2 56164  81.0046 339.3115 0006557  80.6769 279.5129 13.84821277175491","mean_motion":13.84821277,"eccentricity":0.0006557,"inclination_deg":81.0046,"raan_deg":339.3115,"arg_perigee_deg":80.6769,"mean_anomaly_deg":279.5129,"bstar":1.1171e-5,"rev_number":17549,"period_min":103.9845374935,"perigee_km":942.03292597409,"apogee_km":951.6388954492,"semimajor_km":7324.9729107116,"source":"CELESTRAK","updated_at":"2026-09-22T09:00:25.729618Z"}}}